EW4536 Weather Reports


time (UTC)temp
C
wind
direction
speed
KPH
gust
KPH
rain 1hr
cm
rain 24hr
cm
rain mn
cm
humidity
%
barometer
mb
20260906131607 26 232 8.0 12.9 0.00 0.03 0.00 91 1012.4
20260906130022 26 215 3.2 11.3 0.00 0.03 0.00 95 1012.4
20260906124601 25 247 3.2 6.4 0.00 0.03 0.00 95 1012.5
20260906123051 24 211 1.6 4.8 0.00 0.03 0.00 96 1012.4
20260906121555 24 209 1.6 4.8 0.00 0.03 0.00 96 1012.5
20260906120022 23 269 0.0 0.0 0.00 0.03 0.00 96 1012.3
20260906114610 23 269 0.0 0.0 0.00 0.03 0.00 96 1012.0
20260906113026 22 269 0.0 0.0 0.00 0.03 0.00 96 1011.7
20260906111553 22 269 0.0 0.0 0.00 0.03 0.00 96 1011.5
20260906110020 23 204 0.0 0.0 0.00 0.03 0.00 96 1011.3
20260906104555 23 204 0.0 0.0 0.00 0.03 0.00 96 1011.1
20260906103019 23 204 0.0 0.0 0.00 0.03 0.00 96 1011.0
20260906101554 23 204 0.0 0.0 0.00 0.03 0.00 96 1011.1
20260906100014 23 204 0.0 3.2 0.00 0.03 0.00 96 1011.1
20260906094603 23 204 0.0 3.2 0.00 0.03 0.00 95 1011.1
20260906093022 23 204 0.0 3.2 0.00 0.03 0.00 95 1011.2
20260906091603 23 204 0.0 1.6 0.00 0.03 0.00 95 1011.1
20260906090031 23 204 0.0 3.2 0.00 0.03 0.00 95 1010.7
20260906084607 23 204 0.0 3.2 0.00 0.03 0.00 95 1010.8
20260906083014 23 204 0.0 1.6 0.00 0.03 0.00 95 1010.6
20260906081700 23 204 0.0 0.0 0.00 0.03 0.00 95 1010.5
20260906080030 23 204 0.0 0.0 0.00 0.03 0.00 95 1010.6
20260906074607 23 204 0.0 0.0 0.00 0.03 0.00 95 1010.7
20260906073029 23 204 0.0 0.0 0.00 0.03 0.00 95 1010.6
20260906071610 23 204 0.0 0.0 0.00 0.03 0.00 95 1010.8
20260906070039 23 204 0.0 0.0 0.00 0.03 0.00 95 1010.8
20260906064512 24 204 0.0 0.0 0.00 0.03 0.00 94 1011.0
20260906063048 24 203 0.0 3.2 0.00 0.03 0.00 94 1011.1
20260906061514 24 204 0.0 3.2 0.00 0.03 0.00 94 1011.0
20260906060047 24 203 0.0 0.0 0.00 0.03 0.00 93 1011.1
20260906054508 24 204 0.0 3.2 0.00 0.03 0.00 93 1011.2
20260906053043 25 203 0.0 0.0 0.00 0.03 0.00 92 1011.3
20260906051503 25 203 0.0 0.0 0.00 0.03 0.00 91 1011.6
20260906050050 25 203 0.0 8.0 0.00 0.03 0.00 91 1011.2
20260906044504 25 212 3.2 6.4 0.00 0.03 0.00 90 1011.1
20260906043034 25 200 1.6 4.8 0.00 0.03 0.00 90 1011.4
20260906041508 25 216 1.6 4.8 0.00 0.03 0.00 90 1011.4
20260906040038 25 205 3.2 6.4 0.00 0.03 0.00 89 1011.7
20260906034608 25 214 1.6 4.8 0.00 0.03 0.03 90 1011.8
20260906033048 25 219 0.0 0.0 0.00 0.03 0.03 90 1012.1
20260906031501 26 219 0.0 3.2 0.00 0.03 0.03 90 1012.2
20260906030043 26 219 0.0 3.2 0.00 0.03 0.03 89 1012.3
20260906024610 26 219 0.0 3.2 0.00 0.03 0.03 88 1012.2
20260906023040 26 235 0.0 3.2 0.00 0.03 0.03 89 1012.1
20260906021608 26 235 1.6 4.8 0.00 0.03 0.03 88 1012.0
20260906020028 26 202 3.2 6.4 0.00 0.03 0.03 88 1011.9
20260906014604 26 229 1.6 3.2 0.00 0.03 0.03 89 1011.7
20260906013030 26 232 1.6 4.8 0.00 0.03 0.03 91 1011.3
20260906011605 26 213 0.0 0.0 0.00 0.03 0.03 91 1011.1
20260906010015 26 213 0.0 0.0 0.00 0.03 0.03 90 1011.1
20260906004553 27 213 0.0 0.0 0.00 0.08 0.03 89 1011.0
20260906003010 27 213 0.0 0.0 0.00 0.08 0.03 87 1010.5
20260906001551 27 213 0.0 0.0 0.00 0.08 0.03 86 1010.4
20260906000034 28 213 0.0 0.0 0.00 0.08 0.03 84 1010.2
20260905234549 28 213 0.0 3.2 0.00 0.20 0.03 81 1010.3
20260905233013 29 213 1.6 8.0 0.00 0.20 0.03 79 1010.2
20260905231559 30 202 1.6 6.4 0.00 0.20 0.03 79 1010.3
20260905230028 30 200 1.6 8.0 0.00 0.20 0.03 77 1010.3
20260905224558 31 194 1.6 6.4 0.00 0.43 0.03 76 1010.5
20260905223030 31 192 3.2 8.0 0.00 0.43 0.03 75 1010.8
20260905221608 31 146 0.0 4.8 0.00 0.43 0.03 75 1011.0
20260905220038 31 215 0.0 6.4 0.00 0.43 0.03 75 1011.1
20260905214506 31 182 3.2 12.9 0.00 1.45 0.03 73 1011.1
20260905213042 32 215 4.8 9.7 0.00 1.45 0.03 73 1010.9
20260905211505 32 200 4.8 9.7 0.00 1.45 0.03 72 1010.8
20260905210041 31 219 3.2 9.7 0.00 1.45 0.03 73 1010.9
20260905204611 31 213 4.8 11.3 0.00 1.88 0.03 71 1010.9
20260905203041 31 216 4.8 11.3 0.00 1.88 0.03 73 1011.0
20260905201512 31 221 4.8 9.7 0.00 1.88 0.03 73 1011.3
20260905200054 32 197 3.2 16.1 0.00 1.88 0.03 74 1011.2
20260905194520 32 213 8.0 16.1 0.00 1.91 0.03 68 1011.2
20260905193054 32 237 6.4 11.3 0.03 1.91 0.03 71 1011.4
20260905191525 31 251 6.4 12.9 0.03 1.91 0.03 71 1011.8
20260905190114 30 216 3.2 9.7 0.03 1.91 0.03 74 1012.0
20260905184543 29 196 3.2 11.3 0.03 1.91 0.03 81 1012.0
20260905183106 31 252 1.6 4.8 0.00 1.88 0.00 72 1012.1
20260905181530 30 261 4.8 9.7 0.00 1.88 0.00 76 1012.5
20260905180058 31 253 3.2 8.0 0.00 1.88 0.00 72 1012.5
20260905174517 30 260 0.0 6.4 0.00 1.88 0.00 75 1012.4
20260905173052 29 152 0.0 11.3 0.00 1.88 0.00 81 1012.7
20260905171508 30 236 4.8 9.7 0.00 1.88 0.00 75 1013.0
20260905170042 30 226 8.0 14.5 0.00 1.88 0.00 76 1013.2
20260905164514 30 259 4.8 12.9 0.00 1.88 0.00 79 1013.5
20260905163042 28 26 3.2 8.0 0.00 1.88 0.00 83 1013.7
20260905161517 30 22 4.8 12.9 0.00 1.88 0.00 78 1013.9
20260905160055 30 43 4.8 9.7 0.00 1.88 0.00 78 1014.0
20260905154517 28 269 3.2 14.5 0.00 1.88 0.00 81 1014.1
20260905153055 30 360 6.4 14.5 0.00 1.88 0.00 78 1014.3
20260905151518 29 222 6.4 12.9 0.00 1.88 0.00 82 1014.4
20260905150049 28 198 3.2 9.7 0.00 1.88 0.00 84 1014.3
20260905144518 28 199 4.8 16.1 0.00 1.88 0.00 85 1014.3
20260905143049 28 227 6.4 12.9 0.00 1.88 0.00 87 1014.3
20260905141513 27 198 3.2 9.7 0.00 1.88 0.00 90 1014.4
20260905140047 27 203 4.8 9.7 0.00 1.88 0.00 94 1014.4
20260905134618 26 254 3.2 8.0 0.00 1.88 0.00 96 1014.3
20260905133042 26 240 3.2 8.0 0.00 1.88 0.00 97 1014.4